STARLINK-32381 (61066 NORAD) Tracking and Keplerian Element Data

This shows tracking and keplerian element data for the satellite.

Feedback or suggestion? Click here.




ElementValue
Catalog61066
NameSTARLINK-32381
Epoch Orbit484
Epoch Day286.89598177
Epoch Year2024
RAAN321.7258
Inclination53.1589
Eccentricity9.25E-05
Argument of Perigee79.7582
Mean Anonmoly280.3531
Mean Motion15.48410242
Decay Rate-0.00439347
L11 61066U 24164S 24286.89598177 -.00439347 00000+0 -86127-2 0 9999
L22 61066 53.1589 321.7258 0000925 79.7582 280.3531 15.48410242 4843



Live tracking and technical data element details for STARLINK-32381 (NORAD 61066). STARLINK-32381 can be tracked NOW for your location showing map with azimuth and elevation plus other details from your city location.







IsCatalogInMostPopularTable: catalog: 61066, numindb: 24
Update: records affected: 1



GetName: 61066 STARLINK-32381

Hit Count: updated at: Fri, 06 Dec 2024 10:01:43 GMT